Andrews, TX

5:44 AM CDT on September 15, 2019 (GMT -0500)
Andrews

Weather History for KE11 - August, 2019

Change the Weather History Date:

Wednesday, August 21, 2019

  Actual Average (WUND) Record (WUND)
Temperature  
Mean Temperature 82 °F -  
Max Temperature 95 °F - - (-1)
Min Temperature 70 °F - - (-1)
Cooling Degree Days 18    
Growing Degree Days 32 (Base 50)    
Moisture  
Dew Point 56 °F    
Average Humidity 42    
Maximum Humidity 63    
Minimum Humidity 25    
Precipitation  
Precipitation 0.00 in - - ()
Sea Level Pressure  
Sea Level Pressure 30.06 in    
Wind  
Wind Speed 6 mph ()    
Max Wind Speed 15 mph    
Max Gust Speed 21 mph    
Visibility 10.0 miles    
Events      
Averages and records for this station are not official NWS values.
T = Trace of Precipitation, MM = Missing Value Source: Averaged Metar Reports

Daily Weather History Graph

Daily Weather History Graph

Search for Another Location

Airport or City:

Astronomy

Aug. 21, 2019 Rise Set
Actual Time 7:18 AM CDT 8:28 PM CDT
Civil Twilight 6:52 AM CDT 8:53 PM CDT
Nautical Twilight 6:22 AM CDT 9:23 PM CDT
Astronomical Twilight 5:50 AM CDT 9:55 PM CDT
Moon No Moon Rise 12:37 PM CDT (8/21)
Length of Visible Light 14h 01m
Length of Day
13h 09m
Waning Gibbous, 69% of the Moon is Illuminated
Aug 21
Waning Gibbous
Aug 23
Last Quarter
Aug 30
New
Sep 5
First Quarter
Sep 13
Full

Hourly Weather History & Observations

Time (CDT) Temp. Heat Index Dew Point Humidity Pressure Visibility Wind Dir Wind Speed Gust Speed Precip Events Conditions
12:15 AM 78.1 °F - 55.8 °F 46% 30.09 in 10.0 mi SSE 5.8 mph - N/A   Clear
12:35 AM 77.4 °F - 56.3 °F 48% 30.09 in 10.0 mi SSE 5.8 mph - N/A   Clear
12:55 AM 77.0 °F - 56.3 °F 49% 30.09 in 10.0 mi SSE 6.9 mph - N/A   Clear
1:15 AM 76.1 °F - 55.9 °F 50% 30.09 in 10.0 mi South 5.8 mph - N/A   Clear
1:35 AM 76.1 °F - 55.9 °F 50% 30.10 in 10.0 mi South 4.6 mph - N/A   Clear
1:55 AM 76.1 °F - 56.3 °F 50% 30.10 in 10.0 mi South 3.5 mph - N/A   Clear
2:15 AM 76.1 °F - 56.3 °F 50% 30.09 in 10.0 mi South 4.6 mph - N/A   Clear
2:35 AM 75.7 °F - 56.3 °F 51% 30.09 in 10.0 mi South 4.6 mph - N/A   Clear
2:55 AM 75.7 °F - 56.1 °F 50% 30.09 in 10.0 mi SSW 5.8 mph - N/A   Clear
3:15 AM 77.0 °F - 56.3 °F 49% 30.09 in 10.0 mi SSW 6.9 mph - N/A   Clear
3:35 AM 76.3 °F - 56.7 °F 51% 30.09 in 10.0 mi SSW 4.6 mph - N/A   Clear
3:55 AM 75.6 °F - 56.8 °F 52% 30.08 in 10.0 mi SSW 5.8 mph - N/A   Clear
4:15 AM 75.4 °F - 56.8 °F 52% 30.09 in 10.0 mi SSW 5.8 mph - N/A   Clear
4:35 AM 74.3 °F - 56.8 °F 54% 30.09 in 10.0 mi South 6.9 mph - N/A   Clear
4:55 AM 73.9 °F - 57.2 °F 56% 30.08 in 10.0 mi South 5.8 mph - N/A   Clear
5:15 AM 74.5 °F - 57.2 °F 55% 30.09 in 10.0 mi SSW 5.8 mph - N/A   Clear
5:35 AM 73.8 °F - 57.2 °F 56% 30.09 in 10.0 mi SSW 4.6 mph - N/A   Clear
5:55 AM 72.7 °F - 57.2 °F 58% 30.09 in 10.0 mi South 4.6 mph - N/A   Clear
6:15 AM 71.8 °F - 57.2 °F 60% 30.10 in 10.0 mi South 3.5 mph - N/A   Clear
6:35 AM 70.7 °F - 57.6 °F 63% 30.10 in 10.0 mi South 3.5 mph - N/A   Clear
6:55 AM 70.9 °F - 57.4 °F 62% 30.10 in 10.0 mi SSW 3.5 mph - N/A   Clear
7:15 AM 72.1 °F - 57.2 °F 59% 30.10 in 10.0 mi South 3.5 mph - N/A   Clear
7:35 AM 71.1 °F - 57.4 °F 62% 30.11 in 10.0 mi Calm Calm - N/A   Clear
7:55 AM 71.6 °F - 57.4 °F 61% 30.11 in 10.0 mi SSE 3.5 mph - N/A   Clear
8:15 AM 73.4 °F - 57.4 °F 57% 30.12 in 10.0 mi Calm Calm - N/A   Clear
8:35 AM 74.5 °F - 57.4 °F 55% 30.13 in 10.0 mi South 3.5 mph - N/A   Clear
8:55 AM 76.3 °F - 58.6 °F 54% 30.13 in 10.0 mi South 5.8 mph - N/A   Clear
9:15 AM 78.3 °F - 60.8 °F 55% 30.12 in 10.0 mi South 11.5 mph 17.3 mph N/A   Clear
9:35 AM 80.1 °F 81.0 °F 60.3 °F 51% 30.12 in 10.0 mi South 9.2 mph - N/A   Clear
9:55 AM 81.1 °F 81.8 °F 60.1 °F 49% 30.12 in 10.0 mi South 9.2 mph - N/A   Clear
10:15 AM 83.1 °F 83.2 °F 59.7 °F 45% 30.13 in 10.0 mi South 8.1 mph - N/A   Clear
10:35 AM 84.4 °F 84.2 °F 59.9 °F 43% 30.13 in 10.0 mi South 6.9 mph - N/A   Clear
10:55 AM 86.4 °F 85.6 °F 59.0 °F 39% 30.13 in 10.0 mi SSW 8.1 mph - N/A   Clear
11:15 AM 87.3 °F 86.1 °F 57.0 °F 36% 30.13 in 10.0 mi South 9.2 mph - N/A   Clear
11:35 AM 88.2 °F 86.9 °F 57.6 °F 35% 30.13 in 10.0 mi SSE 5.8 mph - N/A   Clear
11:55 AM 89.2 °F 87.7 °F 56.8 °F 33% 30.13 in 10.0 mi SE 9.2 mph - N/A   Clear
12:15 PM 88.9 °F 87.5 °F 57.2 °F 34% 30.12 in 10.0 mi South 9.2 mph - N/A   Clear
12:35 PM 90.5 °F 89.3 °F 57.4 °F 33% 30.12 in 10.0 mi South 8.1 mph 17.3 mph N/A   Clear
12:55 PM 90.1 °F 88.6 °F 56.3 °F 32% 30.10 in 10.0 mi SE 9.2 mph 17.3 mph N/A   Clear
1:10 PM 91.6 °F 89.8 °F 55.9 °F 30% 30.10 in 10.0 mi SE 12.7 mph 16.1 mph N/A   Clear
1:35 PM 91.8 °F 89.8 °F 54.9 °F 29% 30.09 in 10.0 mi SSE 6.9 mph - N/A   Clear
1:55 PM 92.3 °F 90.7 °F 56.5 °F 30% 30.08 in 10.0 mi South 10.4 mph 17.3 mph N/A   Clear
2:15 PM 92.7 °F 90.9 °F 55.6 °F 29% 30.07 in 10.0 mi South 10.4 mph 17.3 mph N/A   Mostly Cloudy
2:35 PM 93.7 °F 92.0 °F 56.1 °F 28% 30.06 in 10.0 mi ESE 12.7 mph 20.7 mph N/A   Scattered Clouds
2:55 PM 94.3 °F 92.4 °F 55.2 °F 27% 30.05 in 10.0 mi South 6.9 mph 19.6 mph N/A   Scattered Clouds
3:15 PM 94.3 °F 92.4 °F 55.4 °F 27% 30.04 in 10.0 mi SE 15.0 mph 18.4 mph N/A   Scattered Clouds
3:35 PM 94.3 °F 92.4 °F 55.0 °F 27% 30.03 in 10.0 mi SSE 8.1 mph 18.4 mph N/A   Scattered Clouds
3:55 PM 94.6 °F 92.6 °F 55.2 °F 26% 30.02 in 10.0 mi SE 11.5 mph 18.4 mph N/A   Clear
4:15 PM 95.2 °F 93.3 °F 54.9 °F 26% 30.01 in 10.0 mi SE 5.8 mph - N/A   Scattered Clouds
4:35 PM 92.7 °F 90.4 °F 54.1 °F 27% 30.01 in 10.0 mi SE 9.2 mph 18.4 mph N/A   Scattered Clouds
4:55 PM 95.0 °F 93.0 °F 54.7 °F 26% 30.00 in 10.0 mi SE 11.5 mph 20.7 mph N/A   Scattered Clouds
5:15 PM 95.0 °F 92.7 °F 54.3 °F 25% 29.99 in 10.0 mi SE 13.8 mph 19.6 mph N/A   Scattered Clouds
5:35 PM 94.3 °F 92.1 °F 54.3 °F 26% 29.98 in 10.0 mi SE 11.5 mph 19.6 mph N/A   Clear
5:55 PM 94.1 °F 91.6 °F 53.6 °F 25% 29.98 in 10.0 mi SE 8.1 mph 18.4 mph N/A   Clear
6:15 PM 94.3 °F 92.1 °F 54.0 °F 26% 29.97 in 10.0 mi SE 12.7 mph 19.6 mph N/A   Clear
6:35 PM 93.2 °F 91.0 °F 54.5 °F 27% 29.97 in 10.0 mi SSE 13.8 mph 19.6 mph N/A   Clear
6:55 PM 92.8 °F 90.6 °F 54.5 °F 27% 29.96 in 10.0 mi SSE 11.5 mph 20.7 mph N/A   Clear
7:15 PM 92.3 °F 90.2 °F 55.0 °F 28% 29.96 in 10.0 mi SSE 8.1 mph - N/A   Clear
7:35 PM 91.0 °F 88.7 °F 54.0 °F 28% 29.96 in 10.0 mi SSE 12.7 mph 16.1 mph N/A   Clear
7:55 PM 89.8 °F 87.7 °F 54.9 °F 30% 29.96 in 10.0 mi SSE 10.4 mph 19.6 mph N/A   Clear
8:15 PM 88.7 °F 86.9 °F 55.2 °F 32% 29.97 in 10.0 mi SSE 9.2 mph - N/A   Clear
8:35 PM 87.6 °F 85.9 °F 55.2 °F 33% 29.98 in 10.0 mi SSE 8.1 mph - N/A   Clear
8:55 PM 85.8 °F 84.3 °F 55.4 °F 35% 29.98 in 10.0 mi SSE 5.8 mph - N/A   Clear
9:15 PM 83.8 °F 82.8 °F 55.4 °F 38% 29.98 in 10.0 mi SSE 5.8 mph - N/A   Clear
9:35 PM 82.4 °F 81.8 °F 55.8 °F 40% 30.00 in 10.0 mi SSE 5.8 mph - N/A   Clear
9:50 PM 82.9 °F 82.1 °F 55.4 °F 39% 30.01 in 10.0 mi SSE 4.6 mph - N/A   Clear
10:15 PM 81.1 °F 80.9 °F 55.6 °F 41% 30.02 in 10.0 mi SSE 5.8 mph - N/A   Clear
10:35 PM 79.9 °F - 55.8 °F 43% 30.03 in 10.0 mi SSE 5.8 mph - N/A   Clear
10:55 PM 79.0 °F - 55.8 °F 45% 30.03 in 10.0 mi SSE 4.6 mph - N/A   Clear
11:15 PM 79.2 °F - 55.8 °F 44% 30.03 in 10.0 mi SSE 5.8 mph - N/A   Clear
11:35 PM 79.5 °F - 55.4 °F 43% 30.03 in 10.0 mi SSE 6.9 mph - N/A   Clear
11:55 PM 77.9 °F - 55.4 °F 46% 30.03 in 10.0 mi South 5.8 mph - N/A   Clear